owner,sensor,date,latitude,longitude,vertical_datum,wind_speed,wind_to_direction,wind_speed_of_gust,qcFlag 
COMPS,ioos:station:USF.COMPS:C12:1,2019-10-01T00:35:00,27.4980,-83.7220,3.0,8.06,32.88,9.86,'11111222,11111222,11111222' 
COMPS,ioos:station:USF.COMPS:C12:1,2019-10-01T01:35:00,27.4980,-83.7220,3.0,7.07,38.68,8.82,'11111222,11111222,11111222' 
COMPS,ioos:station:USF.COMPS:C12:1,2019-10-01T02:35:00,27.4980,-83.7220,3.0,8.65,66.44,11.01,'11111222,11111222,11111222' 
COMPS,ioos:station:USF.COMPS:C12:1,2019-10-01T03:35:00,27.4980,-83.7220,3.0,10.1,62.31,12.13,'11111222,11111222,11111222' 
COMPS,ioos:station:USF.COMPS:C12:1,2019-10-01T04:35:00,27.4980,-83.7220,3.0,8.74,58.29,10.51,'11111222,11111222,11111222' 
COMPS,ioos:station:USF.COMPS:C12:1,2019-10-01T05:35:00,27.4980,-83.7220,3.0,8.83,60.33,10.44,'11111222,11111222,11111222' 
COMPS,ioos:station:USF.COMPS:C12:1,2019-10-01T06:35:00,27.4980,-83.7220,3.0,8.3,57.58,10.6,'11111222,11111222,11111222' 
COMPS,ioos:station:USF.COMPS:C12:1,2019-10-01T07:35:00,27.4980,-83.7220,3.0,8.4,60.02,10.65,'11111222,11111222,11111222' 
COMPS,ioos:station:USF.COMPS:C12:1,2019-10-01T08:35:00,27.4980,-83.7220,3.0,9.9,59.13,11.88,'11111222,11111222,11111222' 
COMPS,ioos:station:USF.COMPS:C12:1,2019-10-01T09:35:00,27.4980,-83.7220,3.0,9.29,61.62,11.75,'11111222,11111222,11111222' 
COMPS,ioos:station:USF.COMPS:C12:1,2019-10-01T10:35:00,27.4980,-83.7220,3.0,9.32,69.67,11.31,'11111222,11111222,11111222' 
COMPS,ioos:station:USF.COMPS:C12:1,2019-10-01T11:35:00,27.4980,-83.7220,3.0,9.57,75.34,11.84,'11111222,11111222,11111222' 
COMPS,ioos:station:USF.COMPS:C12:1,2019-10-01T12:35:00,27.4980,-83.7220,3.0,8.59,67.47,10.69,'11111222,11111222,11111222' 
COMPS,ioos:station:USF.COMPS:C12:1,2019-10-01T13:35:00,27.4980,-83.7220,3.0,9.4,73.8,11.58,'11111222,11111222,11111222' 
COMPS,ioos:station:USF.COMPS:C12:1,2019-10-01T14:35:00,27.4980,-83.7220,3.0,8.97,74.99,10.91,'11111222,11111222,11111222' 
COMPS,ioos:station:USF.COMPS:C12:1,2019-10-01T15:35:00,27.4980,-83.7220,3.0,7.63,73.17,9.58,'11111222,11111222,11111222' 
COMPS,ioos:station:USF.COMPS:C12:1,2019-10-01T16:35:00,27.4980,-83.7220,3.0,8.13,62.4,9.85,'11111222,11111222,11111222' 
COMPS,ioos:station:USF.COMPS:C12:1,2019-10-01T17:35:00,27.4980,-83.7220,3.0,7.04,45.57,8.75,'11111222,11111222,11111222' 
COMPS,ioos:station:USF.COMPS:C12:1,2019-10-01T18:35:00,27.4980,-83.7220,3.0,6.94,48.22,8.18,'11111222,11111222,11111222' 
COMPS,ioos:station:USF.COMPS:C12:1,2019-10-01T19:35:00,27.4980,-83.7220,3.0,6.57,37.29,8.11,'11111222,11111222,11111222' 
COMPS,ioos:station:USF.COMPS:C12:1,2019-10-01T20:35:00,27.4980,-83.7220,3.0,7.66,30.34,9.76,'11111222,11111222,11111222' 
COMPS,ioos:station:USF.COMPS:C12:1,2019-10-01T21:35:00,27.4980,-83.7220,3.0,7.31,46.25,9.0,'11111222,11111222,11111222' 
COMPS,ioos:station:USF.COMPS:C12:1,2019-10-01T22:35:00,27.4980,-83.7220,3.0,9.21,52.81,11.08,'11111222,11111222,11111222' 
COMPS,ioos:station:USF.COMPS:C12:1,2019-10-01T23:35:00,27.4980,-83.7220,3.0,8.93,49.49,10.96,'11111222,11111222,11111222' 
COMPS,ioos:station:USF.COMPS:C12:1,2019-10-02T00:35:00,27.4980,-83.7220,3.0,10.47,55.23,12.62,'11111222,11111222,11111222' 
COMPS,ioos:station:USF.COMPS:C12:1,2019-10-02T01:35:00,27.4980,-83.7220,3.0,10.5,58.6,12.74,'11111222,11111222,11111222' 
COMPS,ioos:station:USF.COMPS:C12:1,2019-10-02T02:35:00,27.4980,-83.7220,3.0,10.49,68.68,13.05,'11111222,11111222,11111222' 
COMPS,ioos:station:USF.COMPS:C12:1,2019-10-02T03:35:00,27.4980,-83.7220,3.0,10.22,70.05,12.23,'11111222,11111222,11111222' 
COMPS,ioos:station:USF.COMPS:C12:1,2019-10-02T04:35:00,27.4980,-83.7220,3.0,9.3,77.78,11.29,'11111222,11111222,11111222' 
COMPS,ioos:station:USF.COMPS:C12:1,2019-10-02T05:35:00,27.4980,-83.7220,3.0,9.01,75.35,11.34,'11111222,11111222,11111222' 
COMPS,ioos:station:USF.COMPS:C12:1,2019-10-02T06:35:00,27.4980,-83.7220,3.0,8.99,77.6,10.75,'11111222,11111222,11111222' 
COMPS,ioos:station:USF.COMPS:C12:1,2019-10-02T07:35:00,27.4980,-83.7220,3.0,8.93,75.76,12.14,'11111222,11111222,11111222' 
COMPS,ioos:station:USF.COMPS:C12:1,2019-10-02T08:35:00,27.4980,-83.7220,3.0,9.18,82.69,11.76,'11111222,11111222,11111222' 
COMPS,ioos:station:USF.COMPS:C12:1,2019-10-02T09:35:00,27.4980,-83.7220,3.0,9.19,84.1,11.13,'11111222,11111222,11111222' 
COMPS,ioos:station:USF.COMPS:C12:1,2019-10-02T10:35:00,27.4980,-83.7220,3.0,9.22,83.58,11.51,'11111222,11111222,11111222' 
COMPS,ioos:station:USF.COMPS:C12:1,2019-10-02T11:35:00,27.4980,-83.7220,3.0,8.81,68.85,10.51,'11111222,11111222,11111222' 
COMPS,ioos:station:USF.COMPS:C12:1,2019-10-02T12:35:00,27.4980,-83.7220,3.0,8.35,69.19,10.73,'11111222,11111222,11111222' 
COMPS,ioos:station:USF.COMPS:C12:1,2019-10-02T13:35:00,27.4980,-83.7220,3.0,7.72,70.34,9.76,'11111222,11111222,11111222' 
COMPS,ioos:station:USF.COMPS:C12:1,2019-10-02T14:35:00,27.4980,-83.7220,3.0,8.27,67.9,10.28,'11111222,11111222,11111222' 
COMPS,ioos:station:USF.COMPS:C12:1,2019-10-02T15:35:00,27.4980,-83.7220,3.0,7.93,59.64,10.32,'11111222,11111222,11111222' 
COMPS,ioos:station:USF.COMPS:C12:1,2019-10-02T16:35:00,27.4980,-83.7220,3.0,8.44,60.4,10.41,'11111222,11111222,11111222' 
COMPS,ioos:station:USF.COMPS:C12:1,2019-10-02T17:35:00,27.4980,-83.7220,3.0,7.64,60.4,9.37,'11111222,11111222,11111222' 
COMPS,ioos:station:USF.COMPS:C12:1,2019-10-02T18:35:00,27.4980,-83.7220,3.0,5.92,49.36,8.02,'11111222,11111222,11111222' 
COMPS,ioos:station:USF.COMPS:C12:1,2019-10-02T19:35:00,27.4980,-83.7220,3.0,5.92,44.75,7.21,'11111222,11111222,11111222' 
COMPS,ioos:station:USF.COMPS:C12:1,2019-10-02T20:35:00,27.4980,-83.7220,3.0,6.15,31.76,7.69,'11111222,11111222,11111222' 
COMPS,ioos:station:USF.COMPS:C12:1,2019-10-02T21:35:00,27.4980,-83.7220,3.0,6.42,28.05,7.91,'11111222,11111222,11111222' 
COMPS,ioos:station:USF.COMPS:C12:1,2019-10-02T22:35:00,27.4980,-83.7220,3.0,6.89,26.21,8.31,'11111222,11111222,11111222' 
COMPS,ioos:station:USF.COMPS:C12:1,2019-10-02T23:35:00,27.4980,-83.7220,3.0,7.51,27.74,8.59,'11111222,11111222,11111222' 
COMPS,ioos:station:USF.COMPS:C12:1,2019-10-03T00:35:00,27.4980,-83.7220,3.0,7.49,32.58,9.03,'11111222,11111222,11111222' 
COMPS,ioos:station:USF.COMPS:C12:1,2019-10-03T01:35:00,27.4980,-83.7220,3.0,6.3,48.51,7.68,'11111222,11111222,11111222' 
COMPS,ioos:station:USF.COMPS:C12:1,2019-10-03T02:35:00,27.4980,-83.7220,3.0,9.42,87.7,11.82,'11111222,11111222,11111222' 
COMPS,ioos:station:USF.COMPS:C12:1,2019-10-03T03:35:00,27.4980,-83.7220,3.0,9.42,91.24,11.58,'11111222,11111222,11111222' 
COMPS,ioos:station:USF.COMPS:C12:1,2019-10-03T04:35:00,27.4980,-83.7220,3.0,9.29,95.24,11.55,'11111222,11111222,11111222' 
COMPS,ioos:station:USF.COMPS:C12:1,2019-10-03T05:35:00,27.4980,-83.7220,3.0,9.07,93.32,11.32,'11111222,11111222,11111222' 
COMPS,ioos:station:USF.COMPS:C12:1,2019-10-03T06:35:00,27.4980,-83.7220,3.0,8.54,99.56,10.31,'11111222,11111222,11111222' 
COMPS,ioos:station:USF.COMPS:C12:1,2019-10-03T07:35:00,27.4980,-83.7220,3.0,7.91,97.33,9.28,'11111222,11111222,11111222' 
COMPS,ioos:station:USF.COMPS:C12:1,2019-10-03T08:35:00,27.4980,-83.7220,3.0,7.88,89.34,9.65,'11111222,11111222,11111222' 
COMPS,ioos:station:USF.COMPS:C12:1,2019-10-03T09:35:00,27.4980,-83.7220,3.0,7.0,85.99,8.42,'11111222,11111222,11111222' 
COMPS,ioos:station:USF.COMPS:C12:1,2019-10-03T10:35:00,27.4980,-83.7220,3.0,7.11,95.84,8.54,'11111222,11111222,11111222' 
COMPS,ioos:station:USF.COMPS:C12:1,2019-10-03T11:35:00,27.4980,-83.7220,3.0,7.55,92.92,9.74,'11111222,11111222,11111222' 
COMPS,ioos:station:USF.COMPS:C12:1,2019-10-03T12:35:00,27.4980,-83.7220,3.0,6.93,86.04,8.98,'11111222,11111222,11111222' 
COMPS,ioos:station:USF.COMPS:C12:1,2019-10-03T13:35:00,27.4980,-83.7220,3.0,7.33,84.83,8.7,'11111222,11111222,11111222' 
COMPS,ioos:station:USF.COMPS:C12:1,2019-10-03T14:35:00,27.4980,-83.7220,3.0,7.26,77.36,8.98,'11111222,11111222,11111222' 
COMPS,ioos:station:USF.COMPS:C12:1,2019-10-03T15:35:00,27.4980,-83.7220,3.0,6.73,82.44,8.46,'11111222,11111222,11111222' 
COMPS,ioos:station:USF.COMPS:C12:1,2019-10-03T16:35:00,27.4980,-83.7220,3.0,6.59,84.7,8.91,'11111222,11111222,11111222' 
COMPS,ioos:station:USF.COMPS:C12:1,2019-10-03T17:35:00,27.4980,-83.7220,3.0,6.31,75.04,8.3,'11111222,11111222,11111222' 
COMPS,ioos:station:USF.COMPS:C12:1,2019-10-03T18:35:00,27.4980,-83.7220,3.0,6.25,63.98,7.79,'11111222,11111222,11111222' 
COMPS,ioos:station:USF.COMPS:C12:1,2019-10-03T19:35:00,27.4980,-83.7220,3.0,5.46,63.73,6.65,'11111222,11111222,11111222' 
COMPS,ioos:station:USF.COMPS:C12:1,2019-10-03T20:35:00,27.4980,-83.7220,3.0,5.03,49.28,6.15,'11111222,11111222,11111222' 
COMPS,ioos:station:USF.COMPS:C12:1,2019-10-03T21:35:00,27.4980,-83.7220,3.0,4.29,33.5,5.3,'11111222,11111222,11111222' 
COMPS,ioos:station:USF.COMPS:C12:1,2019-10-03T22:35:00,27.4980,-83.7220,3.0,4.05,26.42,5.02,'11111222,11111222,11111222' 
COMPS,ioos:station:USF.COMPS:C12:1,2019-10-03T23:35:00,27.4980,-83.7220,3.0,4.74,20.45,5.71,'11111222,11111222,11111222' 
COMPS,ioos:station:USF.COMPS:C12:1,2019-10-04T00:35:00,27.4980,-83.7220,3.0,4.75,17.43,5.69,'11111222,11111222,11111222' 
COMPS,ioos:station:USF.COMPS:C12:1,2019-10-04T01:35:00,27.4980,-83.7220,3.0,5.92,25.81,7.05,'11111222,11111222,11111222' 
COMPS,ioos:station:USF.COMPS:C12:1,2019-10-04T02:35:00,27.4980,-83.7220,3.0,5.75,31.69,7.14,'11111222,11111222,11111222' 
COMPS,ioos:station:USF.COMPS:C12:1,2019-10-04T03:35:00,27.4980,-83.7220,3.0,6.72,46.22,8.04,'11111222,11111222,11111222' 
COMPS,ioos:station:USF.COMPS:C12:1,2019-10-04T04:35:00,27.4980,-83.7220,3.0,8.73,104.86,10.59,'11111222,11111222,11111222' 
COMPS,ioos:station:USF.COMPS:C12:1,2019-10-04T05:35:00,27.4980,-83.7220,3.0,8.79,107.31,10.61,'11111222,11111222,11111222' 
COMPS,ioos:station:USF.COMPS:C12:1,2019-10-04T06:35:00,27.4980,-83.7220,3.0,8.18,112.31,9.85,'11111222,11111222,11111222' 
COMPS,ioos:station:USF.COMPS:C12:1,2019-10-04T07:35:00,27.4980,-83.7220,3.0,7.39,110.4,8.76,'11111222,11111222,11111222' 
COMPS,ioos:station:USF.COMPS:C12:1,2019-10-04T08:35:00,27.4980,-83.7220,3.0,6.58,108.59,8.12,'11111222,11111222,11111222' 
COMPS,ioos:station:USF.COMPS:C12:1,2019-10-04T09:35:00,27.4980,-83.7220,3.0,5.65,113.47,7.04,'11111222,11111222,11111222' 
COMPS,ioos:station:USF.COMPS:C12:1,2019-10-04T10:35:00,27.4980,-83.7220,3.0,5.11,104.36,6.43,'11111222,11111222,11111222' 
COMPS,ioos:station:USF.COMPS:C12:1,2019-10-04T11:35:00,27.4980,-83.7220,3.0,4.11,98.68,5.36,'11111222,11111222,11111222' 
COMPS,ioos:station:USF.COMPS:C12:1,2019-10-04T12:35:00,27.4980,-83.7220,3.0,3.95,80.02,5.39,'11111222,11111222,11111222' 
COMPS,ioos:station:USF.COMPS:C12:1,2019-10-04T13:35:00,27.4980,-83.7220,3.0,4.0,75.7,5.01,'11111222,11111222,11111222' 
COMPS,ioos:station:USF.COMPS:C12:1,2019-10-04T14:35:00,27.4980,-83.7220,3.0,4.07,57.25,5.24,'11111222,11111222,11111222' 
COMPS,ioos:station:USF.COMPS:C12:1,2019-10-04T15:35:00,27.4980,-83.7220,3.0,4.44,66.18,5.57,'11111222,11111222,11111222' 
COMPS,ioos:station:USF.COMPS:C12:1,2019-10-04T16:35:00,27.4980,-83.7220,3.0,4.63,59.96,5.9,'11111222,11111222,11111222' 
COMPS,ioos:station:USF.COMPS:C12:1,2019-10-04T17:35:00,27.4980,-83.7220,3.0,4.45,43.07,5.91,'11111222,11111222,11111222' 
COMPS,ioos:station:USF.COMPS:C12:1,2019-10-04T18:35:00,27.4980,-83.7220,3.0,4.04,68.25,5.48,'11111222,11111222,11111222' 
COMPS,ioos:station:USF.COMPS:C12:1,2019-10-04T19:35:00,27.4980,-83.7220,3.0,4.3,89.57,5.87,'11111222,11111222,11111222' 
COMPS,ioos:station:USF.COMPS:C12:1,2019-10-04T20:35:00,27.4980,-83.7220,3.0,3.47,70.07,5.44,'11111222,11111222,11111222' 
COMPS,ioos:station:USF.COMPS:C12:1,2019-10-04T21:35:00,27.4980,-83.7220,3.0,2.43,63.26,3.41,'11111222,11111222,11111222' 
COMPS,ioos:station:USF.COMPS:C12:1,2019-10-04T22:35:00,27.4980,-83.7220,3.0,2.72,51.4,3.84,'11111222,11111222,11111222' 
COMPS,ioos:station:USF.COMPS:C12:1,2019-10-04T23:35:00,27.4980,-83.7220,3.0,1.95,42.66,2.79,'11111222,11111222,11111222' 
COMPS,ioos:station:USF.COMPS:C12:1,2019-10-05T00:35:00,27.4980,-83.7220,3.0,3.15,19.98,4.3,'11111222,11111222,11111222' 
COMPS,ioos:station:USF.COMPS:C12:1,2019-10-05T01:35:00,27.4980,-83.7220,3.0,3.77,29.47,4.74,'11111222,11111222,11111222' 
COMPS,ioos:station:USF.COMPS:C12:1,2019-10-05T02:35:00,27.4980,-83.7220,3.0,4.08,20.68,5.3,'11111222,11111222,11111222' 
COMPS,ioos:station:USF.COMPS:C12:1,2019-10-05T03:35:00,27.4980,-83.7220,3.0,4.47,28.17,5.64,'11111222,11111222,11111222' 
COMPS,ioos:station:USF.COMPS:C12:1,2019-10-05T04:35:00,27.4980,-83.7220,3.0,5.36,40.03,6.57,'11111222,11111222,11111222' 
COMPS,ioos:station:USF.COMPS:C12:1,2019-10-05T05:35:00,27.4980,-83.7220,3.0,6.32,53.04,7.83,'11111222,11111222,11111222' 
COMPS,ioos:station:USF.COMPS:C12:1,2019-10-05T06:35:00,27.4980,-83.7220,3.0,6.27,71.1,7.62,'11111222,11111222,11111222' 
COMPS,ioos:station:USF.COMPS:C12:1,2019-10-05T07:35:00,27.4980,-83.7220,3.0,6.34,108.04,7.42,'11111222,11111222,11111222' 
COMPS,ioos:station:USF.COMPS:C12:1,2019-10-05T08:35:00,27.4980,-83.7220,3.0,6.52,100.52,7.94,'11111222,11111222,11111222' 
COMPS,ioos:station:USF.COMPS:C12:1,2019-10-05T09:35:00,27.4980,-83.7220,3.0,6.38,98.99,7.61,'11111222,11111222,11111222' 
COMPS,ioos:station:USF.COMPS:C12:1,2019-10-05T10:35:00,27.4980,-83.7220,3.0,6.22,102.4,7.49,'11111222,11111222,11111222' 
COMPS,ioos:station:USF.COMPS:C12:1,2019-10-05T11:35:00,27.4980,-83.7220,3.0,6.16,105.58,7.61,'11111222,11111222,11111222' 
COMPS,ioos:station:USF.COMPS:C12:1,2019-10-05T12:35:00,27.4980,-83.7220,3.0,5.73,99.49,7.1,'11111222,11111222,11111222' 
COMPS,ioos:station:USF.COMPS:C12:1,2019-10-05T13:35:00,27.4980,-83.7220,3.0,5.74,98.27,7.38,'11111222,11111222,11111222' 
COMPS,ioos:station:USF.COMPS:C12:1,2019-10-05T14:35:00,27.4980,-83.7220,3.0,6.06,93.93,7.21,'11111222,11111222,11111222' 
COMPS,ioos:station:USF.COMPS:C12:1,2019-10-05T15:35:00,27.4980,-83.7220,3.0,6.24,85.25,7.24,'11111222,11111222,11111222' 
COMPS,ioos:station:USF.COMPS:C12:1,2019-10-05T16:35:00,27.4980,-83.7220,3.0,6.04,85.8,7.77,'11111222,11111222,11111222' 
COMPS,ioos:station:USF.COMPS:C12:1,2019-10-05T17:35:00,27.4980,-83.7220,3.0,5.73,82.45,6.96,'11111222,11111222,11111222' 
COMPS,ioos:station:USF.COMPS:C12:1,2019-10-05T18:35:00,27.4980,-83.7220,3.0,4.9,61.53,6.02,'11111222,11111222,11111222' 
COMPS,ioos:station:USF.COMPS:C12:1,2019-10-05T19:35:00,27.4980,-83.7220,3.0,4.37,40.66,6.04,'11111222,11111222,11111222' 
COMPS,ioos:station:USF.COMPS:C12:1,2019-10-05T20:35:00,27.4980,-83.7220,3.0,4.66,21.71,6.09,'11111222,11111222,11111222' 
COMPS,ioos:station:USF.COMPS:C12:1,2019-10-05T21:35:00,27.4980,-83.7220,3.0,5.17,12.1,6.36,'11111222,11111222,11111222' 
COMPS,ioos:station:USF.COMPS:C12:1,2019-10-05T22:35:00,27.4980,-83.7220,3.0,6.24,27.31,7.93,'11111222,11111222,11111222' 
COMPS,ioos:station:USF.COMPS:C12:1,2019-10-05T23:35:00,27.4980,-83.7220,3.0,5.67,27.11,7.14,'11111222,11111222,11111222' 
COMPS,ioos:station:USF.COMPS:C12:1,2019-10-06T00:35:00,27.4980,-83.7220,3.0,6.47,33.58,7.98,'11111222,11111222,11111222' 
COMPS,ioos:station:USF.COMPS:C12:1,2019-10-06T01:35:00,27.4980,-83.7220,3.0,6.71,63.73,8.61,'11111222,11111222,11111222' 
COMPS,ioos:station:USF.COMPS:C12:1,2019-10-06T02:35:00,27.4980,-83.7220,3.0,9.65,98.93,11.38,'11111222,11111222,11111222' 
COMPS,ioos:station:USF.COMPS:C12:1,2019-10-06T03:35:00,27.4980,-83.7220,3.0,10.08,94.41,11.85,'11111222,11111222,11111222' 
COMPS,ioos:station:USF.COMPS:C12:1,2019-10-06T04:35:00,27.4980,-83.7220,3.0,10.06,90.07,11.86,'11111222,11111222,11111222' 
COMPS,ioos:station:USF.COMPS:C12:1,2019-10-06T05:35:00,27.4980,-83.7220,3.0,9.41,89.29,11.39,'11111222,11111222,11111222' 
COMPS,ioos:station:USF.COMPS:C12:1,2019-10-06T06:35:00,27.4980,-83.7220,3.0,9.7,90.13,11.51,'11111222,11111222,11111222' 
COMPS,ioos:station:USF.COMPS:C12:1,2019-10-06T07:35:00,27.4980,-83.7220,3.0,9.18,89.18,11.51,'11111222,11111222,11111222' 
COMPS,ioos:station:USF.COMPS:C12:1,2019-10-06T08:35:00,27.4980,-83.7220,3.0,8.61,81.11,10.82,'11111222,11111222,11111222' 
COMPS,ioos:station:USF.COMPS:C12:1,2019-10-06T09:35:00,27.4980,-83.7220,3.0,8.63,88.73,10.76,'11111222,11111222,11111222' 
COMPS,ioos:station:USF.COMPS:C12:1,2019-10-06T10:35:00,27.4980,-83.7220,3.0,8.28,86.11,10.49,'11111222,11111222,11111222' 
COMPS,ioos:station:USF.COMPS:C12:1,2019-10-06T12:35:00,27.4980,-83.7220,3.0,8.71,78.33,10.98,'11111222,11111222,11111222' 
COMPS,ioos:station:USF.COMPS:C12:1,2019-10-06T13:35:00,27.4980,-83.7220,3.0,9.02,85.46,11.41,'11111222,11111222,11111222' 
COMPS,ioos:station:USF.COMPS:C12:1,2019-10-06T14:35:00,27.4980,-83.7220,3.0,8.37,78.46,11.13,'11111222,11111222,11111222' 
COMPS,ioos:station:USF.COMPS:C12:1,2019-10-06T15:35:00,27.4980,-83.7220,3.0,8.53,79.36,10.23,'11111222,11111222,11111222' 
COMPS,ioos:station:USF.COMPS:C12:1,2019-10-06T16:35:00,27.4980,-83.7220,3.0,7.91,80.72,9.83,'11111222,11111222,11111222' 
COMPS,ioos:station:USF.COMPS:C12:1,2019-10-06T17:35:00,27.4980,-83.7220,3.0,6.72,80.19,8.55,'11111222,11111222,11111222' 
COMPS,ioos:station:USF.COMPS:C12:1,2019-10-06T18:35:00,27.4980,-83.7220,3.0,5.92,67.97,7.95,'11111222,11111222,11111222' 
COMPS,ioos:station:USF.COMPS:C12:1,2019-10-06T19:35:00,27.4980,-83.7220,3.0,5.75,66.05,7.1,'11111222,11111222,11111222' 
COMPS,ioos:station:USF.COMPS:C12:1,2019-10-06T20:35:00,27.4980,-83.7220,3.0,6.7,60.59,9.05,'11111222,11111222,11111222' 
COMPS,ioos:station:USF.COMPS:C12:1,2019-10-06T21:35:00,27.4980,-83.7220,3.0,6.77,64.88,8.25,'11111222,11111222,11111222' 
COMPS,ioos:station:USF.COMPS:C12:1,2019-10-06T22:35:00,27.4980,-83.7220,3.0,7.8,66.43,13.75,'11111222,11111222,11111222' 
COMPS,ioos:station:USF.COMPS:C12:1,2019-10-06T23:35:00,27.4980,-83.7220,3.0,8.96,91.56,11.16,'11111222,11111222,11111222' 
COMPS,ioos:station:USF.COMPS:C12:1,2019-10-07T00:35:00,27.4980,-83.7220,3.0,9.18,81.92,11.24,'11111222,11111222,11111222' 
COMPS,ioos:station:USF.COMPS:C12:1,2019-10-07T01:35:00,27.4980,-83.7220,3.0,8.06,77.59,9.59,'11111222,11111222,11111222' 
COMPS,ioos:station:USF.COMPS:C12:1,2019-10-07T02:35:00,27.4980,-83.7220,3.0,8.87,77.97,11.01,'11111222,11111222,11111222' 
COMPS,ioos:station:USF.COMPS:C12:1,2019-10-07T03:35:00,27.4980,-83.7220,3.0,9.25,72.5,12.06,'11111222,11111222,11111222' 
COMPS,ioos:station:USF.COMPS:C12:1,2019-10-07T04:35:00,27.4980,-83.7220,3.0,9.5,69.0,11.91,'11111222,11111222,11111222' 
COMPS,ioos:station:USF.COMPS:C12:1,2019-10-07T05:35:00,27.4980,-83.7220,3.0,9.66,69.18,11.95,'11111222,11111222,11111222' 
COMPS,ioos:station:USF.COMPS:C12:1,2019-10-07T06:35:00,27.4980,-83.7220,3.0,8.86,80.44,10.8,'11111222,11111222,11111222' 
COMPS,ioos:station:USF.COMPS:C12:1,2019-10-07T07:35:00,27.4980,-83.7220,3.0,8.34,76.38,10.69,'11111222,11111222,11111222' 
COMPS,ioos:station:USF.COMPS:C12:1,2019-10-07T08:35:00,27.4980,-83.7220,3.0,8.07,76.91,9.76,'11111222,11111222,11111222' 
COMPS,ioos:station:USF.COMPS:C12:1,2019-10-07T09:35:00,27.4980,-83.7220,3.0,8.11,77.09,10.28,'11111222,11111222,11111222' 
COMPS,ioos:station:USF.COMPS:C12:1,2019-10-07T10:35:00,27.4980,-83.7220,3.0,7.78,70.5,9.54,'11111222,11111222,11111222' 
COMPS,ioos:station:USF.COMPS:C12:1,2019-10-07T11:35:00,27.4980,-83.7220,3.0,6.46,59.55,8.45,'11111222,11111222,11111222' 
COMPS,ioos:station:USF.COMPS:C12:1,2019-10-07T12:35:00,27.4980,-83.7220,3.0,6.7,54.56,8.47,'11111222,11111222,11111222' 
COMPS,ioos:station:USF.COMPS:C12:1,2019-10-07T14:35:00,27.4980,-83.7220,3.0,6.74,48.95,8.42,'11111222,11111222,11111222' 
COMPS,ioos:station:USF.COMPS:C12:1,2019-10-07T15:35:00,27.4980,-83.7220,3.0,6.49,59.78,7.73,'11111222,11111222,11111222' 
COMPS,ioos:station:USF.COMPS:C12:1,2019-10-07T16:35:00,27.4980,-83.7220,3.0,5.71,75.63,8.94,'11111222,11111222,11111222' 
COMPS,ioos:station:USF.COMPS:C12:1,2019-10-07T17:35:00,27.4980,-83.7220,3.0,4.7,61.88,6.31,'11111222,11111222,11111222' 
COMPS,ioos:station:USF.COMPS:C12:1,2019-10-07T18:35:00,27.4980,-83.7220,3.0,4.3,78.84,5.51,'11111222,11111222,11111222' 
COMPS,ioos:station:USF.COMPS:C12:1,2019-10-07T19:35:00,27.4980,-83.7220,3.0,3.87,74.06,5.14,'11111222,11111222,11111222' 
COMPS,ioos:station:USF.COMPS:C12:1,2019-10-07T20:35:00,27.4980,-83.7220,3.0,3.5,76.83,4.33,'11111222,11111222,11111222' 
COMPS,ioos:station:USF.COMPS:C12:1,2019-10-07T21:35:00,27.4980,-83.7220,3.0,3.11,50.2,4.05,'11111222,11111222,11111222' 
COMPS,ioos:station:USF.COMPS:C12:1,2019-10-07T22:35:00,27.4980,-83.7220,3.0,4.03,54.94,5.11,'11111222,11111222,11111222' 
COMPS,ioos:station:USF.COMPS:C12:1,2019-10-07T23:35:00,27.4980,-83.7220,3.0,4.64,61.12,6.08,'11111222,11111222,11111222' 
COMPS,ioos:station:USF.COMPS:C12:1,2019-10-08T01:35:00,27.4980,-83.7220,3.0,9.3,45.94,12.28,'11111222,11111222,11111222' 
COMPS,ioos:station:USF.COMPS:C12:1,2019-10-08T02:35:00,27.4980,-83.7220,3.0,8.81,42.97,10.69,'11111222,11111222,11111222' 
COMPS,ioos:station:USF.COMPS:C12:1,2019-10-08T03:35:00,27.4980,-83.7220,3.0,8.22,64.03,9.73,'11111222,11111222,11111222' 
COMPS,ioos:station:USF.COMPS:C12:1,2019-10-08T04:35:00,27.4980,-83.7220,3.0,7.18,70.39,9.41,'11111222,11111222,11111222' 
COMPS,ioos:station:USF.COMPS:C12:1,2019-10-08T05:35:00,27.4980,-83.7220,3.0,7.35,54.13,9.13,'11111222,11111222,11111222' 
COMPS,ioos:station:USF.COMPS:C12:1,2019-10-08T06:35:00,27.4980,-83.7220,3.0,7.51,67.05,9.02,'11111222,11111222,11111222' 
COMPS,ioos:station:USF.COMPS:C12:1,2019-10-08T07:35:00,27.4980,-83.7220,3.0,7.75,74.26,9.34,'11111222,11111222,11111222' 
COMPS,ioos:station:USF.COMPS:C12:1,2019-10-08T08:35:00,27.4980,-83.7220,3.0,7.42,73.17,9.08,'11111222,11111222,11111222' 
COMPS,ioos:station:USF.COMPS:C12:1,2019-10-08T09:35:00,27.4980,-83.7220,3.0,6.08,85.82,7.58,'11111222,11111222,11111222' 
COMPS,ioos:station:USF.COMPS:C12:1,2019-10-08T10:35:00,27.4980,-83.7220,3.0,5.15,76.28,6.18,'11111222,11111222,11111222' 
COMPS,ioos:station:USF.COMPS:C12:1,2019-10-08T11:35:00,27.4980,-83.7220,3.0,4.27,108.11,5.3,'11111222,11111222,11111222' 
COMPS,ioos:station:USF.COMPS:C12:1,2019-10-08T12:35:00,27.4980,-83.7220,3.0,5.92,51.55,7.75,'11111222,11111222,11111222' 
COMPS,ioos:station:USF.COMPS:C12:1,2019-10-08T13:35:00,27.4980,-83.7220,3.0,6.72,66.76,8.88,'11111222,11111222,11111222' 
COMPS,ioos:station:USF.COMPS:C12:1,2019-10-08T14:35:00,27.4980,-83.7220,3.0,7.09,60.54,8.5,'11111222,11111222,11111222' 
COMPS,ioos:station:USF.COMPS:C12:1,2019-10-08T15:35:00,27.4980,-83.7220,3.0,6.08,69.75,7.78,'11111222,11111222,11111222' 
COMPS,ioos:station:USF.COMPS:C12:1,2019-10-08T16:35:00,27.4980,-83.7220,3.0,5.51,71.06,6.73,'11111222,11111222,11111222' 
COMPS,ioos:station:USF.COMPS:C12:1,2019-10-08T17:35:00,27.4980,-83.7220,3.0,5.1,83.92,6.09,'11111222,11111222,11111222' 
COMPS,ioos:station:USF.COMPS:C12:1,2019-10-08T18:35:00,27.4980,-83.7220,3.0,3.73,75.52,4.85,'11111222,11111222,11111222' 
COMPS,ioos:station:USF.COMPS:C12:1,2019-10-08T19:35:00,27.4980,-83.7220,3.0,2.72,84.31,3.61,'11111222,11111222,11111222' 
COMPS,ioos:station:USF.COMPS:C12:1,2019-10-08T20:35:00,27.4980,-83.7220,3.0,3.19,53.14,4.29,'11111222,11111222,11111222' 
COMPS,ioos:station:USF.COMPS:C12:1,2019-10-08T21:35:00,27.4980,-83.7220,3.0,3.35,41.21,4.22,'11111222,11111222,11111222' 
COMPS,ioos:station:USF.COMPS:C12:1,2019-10-08T22:35:00,27.4980,-83.7220,3.0,3.96,31.26,4.86,'11111222,11111222,11111222' 
COMPS,ioos:station:USF.COMPS:C12:1,2019-10-08T23:35:00,27.4980,-83.7220,3.0,4.49,38.43,5.48,'11111222,11111222,11111222' 
COMPS,ioos:station:USF.COMPS:C12:1,2019-10-09T00:35:00,27.4980,-83.7220,3.0,4.46,43.89,5.69,'11111222,11111222,11111222' 
COMPS,ioos:station:USF.COMPS:C12:1,2019-10-09T01:35:00,27.4980,-83.7220,3.0,2.54,16.65,7.18,'11111222,11111222,11111222' 
COMPS,ioos:station:USF.COMPS:C12:1,2019-10-09T02:35:00,27.4980,-83.7220,3.0,4.73,53.63,6.03,'11111222,11111222,11111222' 
COMPS,ioos:station:USF.COMPS:C12:1,2019-10-09T03:35:00,27.4980,-83.7220,3.0,6.28,78.57,7.49,'11111222,11111222,11111222' 
COMPS,ioos:station:USF.COMPS:C12:1,2019-10-09T04:35:00,27.4980,-83.7220,3.0,7.0,76.6,8.46,'11111222,11111222,11111222' 
COMPS,ioos:station:USF.COMPS:C12:1,2019-10-09T05:35:00,27.4980,-83.7220,3.0,6.93,63.17,8.45,'11111222,11111222,11111222' 